Location: MAS Eagle Lake Observatory
(44.8103°N, 93.9397°W)
Time: 17:07:34
(UTC-05:00)

Tiangong 2 - Visible Passes

Search period start: 16 October 2017 00:00
Search period end: 26 October 2017 00:00
Orbit: 388 x 392 km, 42.8° (Epoch: 16 October)

Date Brightness Start Highest point End Pass type
(mag) Time Alt. Az. Time Alt. Az. Time Alt. Az.
16 Oct 3.4 05:13:06 23° ESE 05:13:06 23° ESE 05:14:30 10° E visible
16 Oct 2.0 06:45:26 13° W 06:47:59 37° SSW 06:50:59 10° SE visible
17 Oct 1.6 05:50:25 47° S 05:50:25 47° S 05:53:21 10° ESE visible
18 Oct 4.4 04:55:26 11° ESE 04:55:26 11° ESE 04:55:38 10° ESE visible
18 Oct 2.5 06:27:46 19° WSW 06:29:01 25° SSW 06:31:44 10° SE visible
19 Oct 3.2 05:32:50 22° SE 05:32:50 22° SE 05:34:16 10° SE visible
19 Oct 3.6 07:07:02 10° SW 07:07:34 10° SSW 07:08:05 10° SSW visible
20 Oct 3.2 06:10:18 16° SSW 06:10:18 16° SSW 06:12:02 10° SSE visible
